Regional Weather Roundup
Issued by NWS Little Rock, AR

Home | Current Version | Previous Version | Graphics & Text | Print | Product List | Glossary On
Versions: 1 2 3 4 5 6 7 8 9 10 11 12 13 14 15 16 17 18 19 20 21 22 23 24 25 26 27
000
ASUS44 KLZK 230605
RWRLZK

WEATHER ROUNDUP FOR ARKANSAS
NATIONAL WEATHER SERVICE LITTLE ROCK AR
100 AM CDT SAT JUL 23 2016

NOTE: "FAIR" INDICATES FEW OR NO CLOUDS BELOW 12,000 FEET WITH NO
SIGNIFICANT WEATHER AND/OR OBSTRUCTIONS TO VISIBILITY.

ARZ001-003-010-029-230700-
NORTHWEST ARKANSAS

CITY           SKY/WX    TMP DP  RH WIND       PRES   REMARKS
FAYETTEVILLE   CLEAR     75  75 100 CALM      30.03F
6HR MIN TEMP:  74; 6HR MAX TEMP:  90;

FORT SMITH     CLEAR     85  75  72 NE3       29.97F HX  93
6HR MIN TEMP:  84; 6HR MAX TEMP:  97;

HARRISON       CLEAR     78  74  87 S3        30.04F
6HR MIN TEMP:  77; 6HR MAX TEMP:  90;

BENTONVILLE    CLEAR     81  72  74 CALM      30.04S
6HR MIN TEMP:  79; 6HR MAX TEMP:  93;

ROGERS         CLEAR     79  75  87 SE5       30.04S
6HR MIN TEMP:  79; 6HR MAX TEMP:  92;

SILOAM SPGS    CLEAR     75  66  73 SE5       30.03F
HIGHFILL       CLEAR     79  75  87 S3        30.03S
6HR MIN TEMP:  77; 6HR MAX TEMP:  94;

$$

ARZ004-005-016-230700-
NORTH CENTRAL ARKANSAS

CITY           SKY/WX    TMP DP  RH WIND       PRES   REMARKS
BATESVILLE     CLOUDY    75  73  94 S3        30.00S
6HR MIN TEMP:  75; 6HR MAX TEMP:  95; 6HR PCP:  0.08;

FLIPPIN        CLEAR     81  75  83 CALM      29.99S HX  86
6HR MIN TEMP:  81; 6HR MAX TEMP:  91;

MTN HOME       CLEAR     80  74  81 CALM      30.01F HX  85
6HR MIN TEMP:  79; 6HR MAX TEMP:  91;

$$

ARZ040-041-230700-
WEST CENTRAL ARKANSAS

CITY           SKY/WX    TMP DP  RH WIND       PRES   REMARKS
MENA           CLEAR     82  77  83 CALM      30.03F HX  91
MOUNT IDA      PTCLDY    81  76  84 CALM      30.00F HX  87
6HR MIN TEMP:  81; 6HR MAX TEMP:  95;

$$

ARZ009-017-025-026-028-230700-
NORTHEAST ARKANSAS

CITY           SKY/WX    TMP DP  RH WIND       PRES   REMARKS
CORNING          N/A     81  77  89 CALM      29.99F HX  88
JONESBORO      PTCLDY    80  75  84 S3        29.98F HX  85
6HR MIN TEMP:  79; 6HR MAX TEMP:  85;

NEWPORT        PTCLDY    79  78  96 E3        30.00F
6HR MIN TEMP:  78; 6HR MAX TEMP:  92;

WALNUT RIDGE   PTCLDY    81  73  78 SW5       29.98F HX  85
6HR MIN TEMP:  81; 6HR MAX TEMP:  91;

BLYTHEVILLE    MOCLDY    77  73  87 CALM      29.99F
6HR MIN TEMP:  74; 6HR MAX TEMP:  78; 6HR PCP:  0.22;

$$

ARZ022-023-033-042-044-230700-
CENTRAL ARKANSAS

CITY           SKY/WX    TMP DP  RH WIND       PRES   REMARKS
LITTLE ROCK    MOCLDY    82  76  81 W3        29.98F HX  89
6HR MIN TEMP:  82; 6HR MAX TEMP:  89;

JACKSONVILLE   PTCLDY    80  76  88 W6        29.97F HX  85
6HR MIN TEMP:  80; 6HR MAX TEMP:  88; 6HR PCP: TRACE;

SEARCY         CLEAR     79  77  94 CALM      30.00S
6HR MIN TEMP:  78; 6HR MAX TEMP:  91;

HOT SPRINGS    MOCLDY    83  74  74 CALM      30.01S HX  89
6HR MIN TEMP:  82; 6HR MAX TEMP:  90;

RUSSELLVILLE   PTCLDY    81  79  94 CALM      29.98S HX  90
6HR MIN TEMP:  81; 6HR MAX TEMP:  94;

$$

ARZ036-230700-
EAST ARKANSAS

CITY           SKY/WX    TMP DP  RH WIND       PRES   REMARKS
WEST MEMPHIS   CLOUDY    79  73  82 S6        29.97F
6HR MIN TEMP:  79; 6HR MAX TEMP:  93;

$$

ARZ050-053-066-070-073-230700-
SOUTHWEST ARKANSAS

CITY           SKY/WX    TMP DP  RH WIND       PRES   REMARKS
CAMDEN         PTCLDY    81  75  83 SE5       29.98F HX  86
TEXARKANA      CLEAR     84  74  71 S3        29.99S HX  91
6HR MIN TEMP:  84; 6HR MAX TEMP: 100;

EL DORADO      PTCLDY    79  77  94 SE3       30.00S
6HR MIN TEMP:  79; 6HR MAX TEMP:  87;

DE QUEEN       PTCLDY    80  76  87 E5        29.97S HX  86
6HR MIN TEMP:  80; 6HR MAX TEMP:  99;

$$

ARZ056-057-069-230700-
SOUTHEAST ARKANSAS

CITY           SKY/WX    TMP DP  RH WIND       PRES   REMARKS
PINE BLUFF     PTCLDY    80  78  94 CALM      29.99S HX  88
6HR MIN TEMP:  80; 6HR MAX TEMP:  90; 6HR PCP: TRACE;

STUTTGART      PTCLDY    82  73  74 SW5       29.98F HX  88
6HR MIN TEMP:  82; 6HR MAX TEMP:  93;

MONTICELLO     MOCLDY    80  76  87 CALM      29.99F HX  86
6HR MIN TEMP:  80; 6HR MAX TEMP:  90;


$$






USA.gov is the U.S. government's official web portal to all federal, state and local government web resources and services.